CST,Max TemperatureF,Mean TemperatureF,Min TemperatureF,Max Dew PointF,MeanDew PointF,Min DewpointF,Max Humidity, Mean Humidity, Min Humidity, Max Sea Level PressureIn, Mean Sea Level PressureIn, Min Sea Level PressureIn, Max VisibilityMiles, Mean VisibilityMiles, Min VisibilityMiles, Max Wind SpeedMPH, Mean Wind SpeedMPH, Max Gust SpeedMPH,PrecipitationIn, CloudCover, Events, WindDirDegrees
2013-1-1,19,0,-20,17,-3,-27,92,82,70,30.31,30.14,29.96,10,8,4,15,4,,0.00,6,,216
2013-1-2,23,16,10,20,13,6,93,85,79,30.17,29.93,29.81,10,6,2,15,9,16,0.02,8,Snow,243
2013-1-3,18,4,-8,12,5,-12,88,82,76,30.30,30.14,29.98,10,9,2,17,10,23,0.00,5,Snow,273
2013-1-4,26,16,5,17,9,2,92,80,69,30.15,30.07,29.92,10,9,2,10,6,,0.00,0,,281
2013-1-5,26,12,-2,17,6,-8,93,81,66,30.13,29.98,29.86,10,7,0,14,3,20,0.00,3,Fog,345
2013-1-6,16,10,5,13,9,1,92,87,73,30.23,30.09,29.85,10,9,4,13,7,,0.00,6,,215
2013-1-7,35,22,10,24,14,7,92,80,59,29.95,29.85,29.74,10,8,0,20,9,24,0.00,0,Fog,235
2013-1-8,30,18,6,25,13,3,93,87,75,29.94,29.83,29.65,10,5,0,20,4,,0.00,5,Fog-Snow,153
2013-1-9,32,26,19,25,18,14,82,76,66,30.30,30.06,29.74,10,8,2,31,20,38,0.01,5,Snow,258
2013-1-10,42,32,23,30,24,17,93,71,43,30.17,29.91,29.64,10,9,5,28,16,45,0.09,3,Rain,161
2013-1-11,33,32,30,32,31,30,100,95,92,29.62,29.43,29.28,8,2,0,15,7,,0.14,8,Fog-Rain,118
2013-1-12,30,13,-4,28,6,-10,93,80,69,30.17,29.64,29.29,10,5,0,22,14,26,0.01,7,Fog-Snow,306
2013-1-13,10,0,-9,2,-8,-13,84,77,67,30.25,30.16,30.01,10,10,8,14,7,,0.00,4,,295
2013-1-14,10,4,-2,1,-2,-8,82,75,64,30.39,30.30,30.15,10,10,8,9,6,,0.00,6,Snow,227
2013-1-15,21,11,1,16,6,-1,88,74,55,30.24,29.94,29.55,10,8,2,18,9,23,0.00,5,Snow,197
2013-1-16,28,13,-2,25,8,-14,93,72,35,30.33,29.79,29.51,10,8,2,23,13,30,0.00,6,Snow,291
2013-1-17,10,3,-4,2,-4,-12,78,70,62,30.41,30.34,30.22,10,9,2,15,6,,0.00,6,Snow,274
2013-1-18,26,16,6,21,12,1,93,83,69,30.21,29.87,29.68,10,8,2,13,6,,0.03,7,Snow,151
2013-1-19,27,10,-9,25,4,-15,93,77,66,30.28,29.83,29.61,10,4,0,33,14,43,0.00,5,Fog-Snow,293
2013-1-20,0,-8,-17,-9,-16,-23,82,70,60,30.43,30.34,30.20,10,8,2,20,11,25,0.00,4,Snow,295
2013-1-21,-9,-16,-22,-18,-23,-28,78,70,59,30.38,30.32,30.16,10,10,9,15,9,,0.00,1,,290
2013-1-22,0,-14,-26,-7,-20,-33,82,71,63,30.42,30.35,30.25,10,10,10,8,3,,0.00,2,,238
2013-1-23,3,-7,-17,0,-13,-24,85,68,51,30.71,30.37,30.06,10,9,5,23,9,30,0.00,3,Snow,308
2013-1-24,3,-7,-17,-2,-14,-24,78,67,59,30.71,30.46,30.00,10,9,2,20,8,22,0.00,5,Snow,147
2013-1-25,10,0,-13,7,-3,-20,85,74,63,30.40,30.06,29.80,10,7,1,25,13,31,0.00,5,Snow,292
2013-1-26,12,0,-13,3,-4,-19,79,71,61,30.37,30.25,30.12,10,10,7,15,6,,0.00,3,,145
2013-1-27,30,18,7,22,14,1,81,73,63,30.11,29.91,29.77,10,10,9,12,6,,0.00,4,,114
2013-1-28,32,29,26,31,28,21,100,93,80,29.86,29.77,29.64,10,3,0,8,2,,0.38,8,Fog-Rain-Snow,166
2013-1-29,30,23,14,29,21,10,96,88,79,29.87,29.70,29.55,10,6,1,15,8,18,0.14,8,Snow,337
2013-1-30,12,6,-2,8,0,-9,85,77,72,29.87,29.80,29.70,10,7,2,17,12,,0.00,8,Snow,324
2013-1-31,-4,-16,-27,-10,-17,-32,82,71,65,30.34,30.07,29.84,10,7,3,22,14,29,0.00,5,Snow,309